Location: Chin
(49.7667°N, 112.4500°W)
Time: 11:51:02
(UTC+00:00)

N. Korean satellite - Pass Details

Date: 02 December 2021
Orbit: 447 x 491 km, 97.3° (Epoch: 21 January)

Event Time Altitude Azimuth Distance (km) Brightness Sun altitude
Rises 12:03:03 0° 25° (NNE) 2,475 10.5 -28.8°
Reaches altitude 10° 12:05:27 10° 42° (NE) 1,591 9.6 -28.4°
Maximum altitude 12:08:07 21° 93° (E) 1,063 9.0 -28.0°
Drops below altitude 10° 12:10:46 10° 145° (SE) 1,573 9.6 -27.6°
Sets 12:13:07 0° 162° (SSE) 2,437 10.4 -27.2°
